Regional Weather Roundup
Issued by NWS

Home | Current Version | Previous Version | Graphics & Text | Print | Product List | Glossary On
Versions: 1 2 3 4 5 6 7 8 9 10 11 12 13 14 15 16 17 18 19 20 21 22 23 24 25 26 27 28 29 30 31 32 33 34 35 36 37 38 39 40 41 42 43 44 45 46 47 48 49 50
000
ASUS43 KMPX 051510
RWRMN
WEATHER ROUNDUP FOR MINNESOTA
NATIONAL WEATHER SERVICE TWIN CITIES/CHANHASSEN MN
900 AM CST THU MAR 05 2015


NOTE: "FAIR" INDICATES FEW OR NO CLOUDS BELOW 12,000 FEET WITH NO
SIGNIFICANT WEATHER AND/OR OBSTRUCTIONS TO VISIBILITY. N/A MEANS
CURRENT SKY AND/OR WEATHER CONDITIONS ARE NOT AVAILABLE.

MNZ060>063-068>070-051600-
   Twin Cities Metro

CITY           SKY/WX    TMP DP  RH WIND       PRES   REMARKS
TWIN CITIES    SUNNY     -2  -8  76 S5        30.52R WCI -12
ST PAUL        SUNNY      1  -6  72 CALM      30.54R
CRYSTAL        SUNNY      0  -8  69 W3        30.51R
BLAINE         SUNNY      0  -4  85 CALM      30.50R
LAKEVILLE      SUNNY     -6  -9  84 SW3       30.51R
EDEN PRAIRIE   SUNNY     -3  -9  75 SW3       30.51R
SOUTH ST PAUL  SUNNY      2  -8  64 W3        30.52S
LAKE ELMO      FAIR       0  -8  71 CALM      30.52R
$$
MNZ001>005-007-008-013>017-022>024-027-028-051600-
   Northwest Minnesota

CITY           SKY/WX    TMP DP  RH WIND       PRES   REMARKS
BEMIDJI        PTSUNNY   -8 -12  80 SW5       30.32R WCI -19
HALLOCK        MOSUNNY   -9 -17  70 S10       30.29F WCI -28
ROSEAU         MOSUNNY   -8 -15  71 SW8       30.29F WCI -23
WARROAD        MOSUNNY   -8 -15  71 SW10      30.28S WCI -26
THIEF RVR FALL MOSUNNY   -8 -15  71 S10       30.31F WCI -26
CROOKSTON      MOSUNNY   -2  -9  71 S13       30.36F WCI -21
FOSSTON        MOSUNNY   -6 -11  77 SW9       30.35R WCI -22
DETROIT LAKES  MOSUNNY   -4  -8  84 SW5       30.36S WCI -15
MOORHEAD       SUNNY      1  -8  66 S14       30.40S WCI -17
PARK RAPIDS    MOSUNNY   -6 -12  75 SW8       30.35R WCI -21
MAHNOMEN       FAIR      -3  -9  75 SW9       30.36R WCI -20
$$
MNZ006-009>011-018-025>026-051600-
   North Central Minnesota

CITY           SKY/WX    TMP DP  RH WIND       PRES   REMARKS
BAUDETTE       MOSUNNY  -10 -16  74 SW6       30.28R WCI -23
FLAG ISLAND    MOSUNNY  -13 -18  77 S6        30.27R WCI -27
INTL FALLS     MOSUNNY   -9 -14  78 SW7       30.31R WCI -24
WASKISH        PTSUNNY   -6 -11  77 SW12      30.32R WCI -24
BIG FORK       MOSUNNY   -9 -17  70 S3        30.32S
LONGVILLE      PTSUNNY   -8 -11  84 S3        30.36S
GRAND RAPIDS   MOSUNNY   -6  -6 100 SW5       30.34R WCI -17
CRANE LAKE     MOSUNNY   -8 -15  71 CALM      30.36S
ORR            PTSUNNY   -8 -15  71 CALM      30.29S
COOK           PTSUNNY   -9 -15  77 SW3       30.33S
WALKER         FAIR      -6 -12  77 SW5       30.34S WCI -18
$$
MNZ012-019>021-037-051600-
   Northeast Minnesota

CITY           SKY/WX    TMP DP  RH WIND       PRES   REMARKS
DULUTH         MOSUNNY   -6 -13  71 NW10      30.35R WCI -24
ELY            MOSUNNY  -11 -17  77 CALM      30.32S
HIBBING        MOSUNNY  -10 -17  71 CALM      30.35R
EVELETH        PTSUNNY   -9 -17  70 CALM      30.35R
DULUTH HARBOR  MOSUNNY   -6 -15  65 CALM      30.48R
TWO HARBORS    MOSUNNY    0 -11  60 W3        30.35S
SILVER BAY     SUNNY      1 -11  55 CALM      30.34S
GRAND MARAIS     N/A      3  -6  66 SW10      30.39S WCI -12
G MARAIS ARPRT SUNNY     -2 -17  50 W9G18     30.23R WCI -18
$$
MNZ029>031-032-039>041-046>048-054>057-064-051600-
   West Central Minnesota

CITY           SKY/WX    TMP DP  RH WIND       PRES   REMARKS
FERGUS FALLS   MOSUNNY   -8 -15  71 S6        30.46S WCI -21
WHEATON        PTSUNNY   -6 -13  71 S7        30.45S WCI -20
MORRIS         MOSUNNY   -6 -11  77 S6        30.43S WCI -18
ALEXANDRIA     PTSUNNY   -8 -12  83 SW5       30.40R WCI -19
ELBOW LAKE     FAIR      -9 -13  82 S6        30.41S WCI -22
WADENA         MOSUNNY   -8 -11  84 SW6       30.38S WCI -21
GLENWOOD       MOSUNNY   -8 -11  84 S3        30.43R
APPLETON       MOSUNNY    0  -9  65 CALM      30.47S
BENSON         MOSUNNY   -2  -9  71 CALM      30.46R
ORTONVILLE     MOSUNNY   -2 -15  55 S6        30.44R WCI -14
MADISON        MOSUNNY    0  -9  65 SW5       30.47R WCI -10
WILLMAR        FAIR      -2  -9  71 SW3       30.48R
$$
MNZ033>034-036-042>043-049>051-058-059-051600-
   Central Minnesota

CITY           SKY/WX    TMP DP  RH WIND       PRES   REMARKS
ST CLOUD       MOSUNNY   -5 -11  75 SW3       30.47R
SAUK CENTRE    FAIR      -6 -10  83 S3        30.44R
PAYNESVILLE    MOSUNNY   -7 -10  85 CALM      30.47R
AITKIN         PTSUNNY   -2  -9  71 S3        30.40R
PINE RIVER     PTSUNNY  -11 -17  77 CALM      30.41R
BRAINERD       PTSUNNY  -11 -15  82 W5        30.42R WCI -23
STAPLES        MOSUNNY   -8 -11  84 S3        30.39R
LONG PRAIRIE   FAIR      -9 -15  77 S3        30.42S
LITTLE FALLS   MOSUNNY   -8 -13  77 CALM      30.45S
LITCHFIELD     SUNNY     -2  -8  78 CALM      30.48R
BUFFALO        SUNNY     -5  -9  81 CALM      30.51R
MAPLE LAKE     SUNNY     -2  -6  84 CALM      30.50R
$$
MNZ037-044-045-052-053-051600-
   East Central Minnesota

CITY           SKY/WX    TMP DP  RH WIND       PRES   REMARKS
PRINCETON      MOSUNNY   -2  -9  71 CALM      30.48R
MORA           MOSUNNY   -6 -13  71 CALM      30.48R
CAMBRIDGE      MOSUNNY   -6 -13  71 CALM      30.47R
RUSH CITY      MOSUNNY   -5 -10  79 CALM      30.49R
MOOSE LAKE     SUNNY     -6 -13  71 CALM      30.42R
HINCKLEY       FAIR      -8 -13  77 CALM      30.46R
CLOQUET        MOSUNNY   -6 -13  71 W9        30.38R WCI -22
MCGREGOR       MOSUNNY   -4  -8  84 CALM      30.41R
$$
MNZ071>073-080-081-089-090-097-098-051600-
   Southwest Minnesota

CITY           SKY/WX    TMP DP  RH WIND       PRES   REMARKS
MONTEVIDEO     MOSUNNY    1  -6  71 SW5       30.49R WCI  -8
GRANITE FALLS  SUNNY      0  -7  71 SW5       30.51R WCI -10
CANBY          SUNNY      2  -8  61 SW5       30.46S WCI  -7
MARSHALL       SUNNY      1  -9  60 SW6       30.48R WCI -10
REDWOOD FALLS  SUNNY     -2 -10  69 SW6       30.50R WCI -14
OLIVIA         SUNNY      0  -8  71 SW3       30.49R
PIPESTONE      MOSUNNY   -4  -8  84 SW5       30.41S WCI -15
WINDOM         SUNNY      0  -9  65 CALM      30.47R
WORTHINGTON    SUNNY      0  -9  65 SW7       30.47R WCI -13
JACKSON        SUNNY      1  -9  60 W3        30.47R
TRACY          MOSUNNY    1  -8  66 SW8       30.46S WCI -14
SLAYTON        MOSUNNY   -2 -10  66 CALM      30.44S
$$
MNZ065>067-074>077-082>085-091>093-051600-
   South Central Minnesota

CITY           SKY/WX    TMP DP  RH WIND       PRES   REMARKS
MANKATO        SUNNY     -2 -11  65 W3        30.51R
NEW ULM        SUNNY     -2  -9  71 W3        30.51S
ST JAMES       SUNNY      1  -8  66 SW3       30.52R
FAIRMONT       SUNNY      1  -8  66 W5        30.50R WCI  -8
GLENCOE        SUNNY     -3  -8  79 SW5       30.50R WCI -13
FARIBAULT      SUNNY     -2  -9  71 SW3       30.51R
OWATONNA       SUNNY     -2  -8  78 W3        30.50R
WASECA         SUNNY     -4  -8  84 SW5       30.52R WCI -15
ALBERT LEA     SUNNY     -2  -9  71 W3        30.49R
$$
MNZ078>079-086>088-094>096-051600-
   Southeast Minnesota

CITY           SKY/WX    TMP DP  RH WIND       PRES   REMARKS
ROCHESTER      SUNNY     -6 -11  79 W6        30.48R WCI -19
RED WING       SUNNY      0  -9  65 W5        30.53R WCI -10
STANTON        SUNNY     -1  -8  71 W5        30.51R WCI -11
DODGE CENTER   MOSUNNY   -6  -9  84 W5        30.47R WCI -17
WINONA         SUNNY      1  -9  60 NW5       30.55S WCI  -8
AUSTIN         SUNNY     -2  -9  71 W5        30.49R WCI -12
PRESTON        SUNNY     -5 -11  75 W6        30.50R WCI -18
$$
ABBREVIATIONS USED IN REMARKS
   TC - TEMPERATURES IN CELSIUS
  WCI - WIND CHILL INDEX
   HX - HEAT INDEX
  VSB - VISIBILITY
$$


USA.gov is the U.S. government's official web portal to all federal, state and local government web resources and services.